Location: Unspecified
(0.0000°N, 0.0000°E)
Time: 00:57:01
(UTC+00:00)

Milstar 3 - Visible Passes

Search period start: 18 October 2019 00:00
Search period end: 28 October 2019 00:00
Orbit: 1111 x 5134 km, 28.2° (Epoch: 06 September)

Date Brightness Start Highest point End Pass type
(mag) Time Alt. Az. Time Alt. Az. Time Alt. Az.
18 Oct 4.4 04:11:22 18° NNW 04:11:22 18° NNW 04:15:21 10° NNE visible
18 Oct 6.5 18:03:43 10° WSW 18:31:44 35° S 18:55:37 10° SE visible
18 Oct 5.7 21:08:16 10° SW 21:33:10 36° S 21:34:16 36° SSE visible
19 Oct 6.5 00:05:53 10° SW 00:07:50 14° SW 00:07:50 14° SW visible
19 Oct 4.8 03:13:41 16° NNE 03:13:41 16° NNE 03:15:12 10° NNE visible
19 Oct 5.9 19:59:11 10° SW 20:26:20 34° S 20:36:15 26° SE visible
19 Oct 6.1 22:59:16 10° SW 23:09:49 29° SW 23:09:49 29° SW visible
20 Oct 6.3 18:49:55 10° WSW 19:18:07 34° S 19:38:13 12° ESE visible
20 Oct 5.7 21:51:53 10° SW 22:11:47 42° S 22:11:47 42° S visible
21 Oct 4.7 03:51:52 14° N 03:51:52 14° N 03:53:49 10° N visible
21 Oct 6.6 17:41:18 10° WSW 18:08:50 35° S 18:33:45 10° SE visible
21 Oct 5.7 20:43:49 10° SW 21:10:58 40° SSE 21:13:45 39° SSE visible
21 Oct 6.4 23:41:49 10° WSW 23:47:19 20° SW 23:47:19 20° SW visible
22 Oct 5.9 19:35:18 10° SW 20:03:53 37° S 20:15:43 25° SE visible
22 Oct 5.9 22:34:46 10° SW 22:49:17 38° SW 22:49:17 38° SW visible
23 Oct 6.3 18:26:50 10° SW 18:55:24 35° S 19:17:42 10° ESE visible
23 Oct 5.5 21:27:15 10° SW 21:51:15 50° S 21:51:15 50° S visible
24 Oct 6.7 00:24:46 10° WSW 00:24:49 10° WSW 00:24:49 10° WSW visible
24 Oct 5.0 03:32:15 10° N 03:32:15 10° N 03:32:24 10° N visible
24 Oct 6.6 17:19:02 10° WSW 17:45:56 35° S 18:11:47 10° ESE visible
24 Oct 5.6 20:19:25 10° SW 20:48:32 45° SSE 20:53:14 41° SE visible
24 Oct 6.2 23:17:35 10° WSW 23:26:48 27° WSW 23:26:48 27° WSW visible
25 Oct 6.0 19:11:31 10° SW 19:41:13 40° SSE 19:55:13 24° ESE visible
25 Oct 5.7 22:10:09 10° SW 22:28:47 48° SW 22:28:47 48° SW visible
26 Oct 6.4 18:03:53 10° SW 18:32:34 36° S 18:56:21 10° ESE visible
26 Oct 5.4 21:02:36 10° SW 21:30:46 57° SSE 21:30:46 57° SSE visible
27 Oct 6.5 00:00:56 10° WSW 00:04:20 16° WSW 00:04:20 16° WSW visible
27 Oct 5.6 19:55:07 10° SW 20:25:48 49° SSE 20:32:46 42° SE visible
27 Oct 6.0 22:53:12 10° WSW 23:06:19 35° WSW 23:06:19 35° WSW visible
